Home > Weather > Bastia > Past weeks

Flag for France Past Weather in Bastia, Corsica, France — Yesterday and Last 2 Weeks

Now
81 °F

Passing clouds.


Feels Like: 81 °F
Forecast: 70 / 83 °F
Wind: 8 mph from Southwest

Location: Bastia Airport

Current Time: Jun 25, 2016 at 9:04:42 AM

Latest Report: Jun 25, 2016 at 8:30 AM


Visibility: N/A

Pressure: 29.89 "Hg

Humidity: 45%

Dew Point: 57 °F

Location of BastiaLocation

Past Weather in Bastia — Graph

°F

Bastia Temperature Yesterday

Maximum temperature yesterday: 95 °F (at 4:30 PM)
Minimum temperature yesterday: 70 °F (at 3:30 AM)
Average temperature yesterday: 82 °F

High & Low Weather Summary for the Past Weeks

 TemperatureHumidityPressure
High95 °F (Jun 24, 4:30 PM)94% (Jun 11, 11:30 PM)30.18 "Hg (Jun 11, 11:30 PM)
Low57 °F (Jun 18, 3:30 AM)28% (Jun 24, 4:30 PM)29.56 "Hg (Jun 14, 2:00 AM)
Average72 °F64%29.91 "Hg
* Reported Jun 10 8:00 AM — Jun 25 8:00 AM, Bastia, Weather by CustomWeather, © 2016

Note: Actual official high and low records may vary slightly from our data, if they occured in-between our weather recording intervals... More about our weather records

Advertising

Bastia Weather History for the Previous 24 Hours

Scroll right to see more
 ConditionsComfort  
Time TempWeatherWind HumidityBarometerVisibility
8:00 AM
Sat, Jun 25
79 °FPassing clouds.8 mph48%29.89 "HgN/A
7:30 AM75 °FPassing clouds.5 mph54%29.89 "HgN/A
7:00 AM73 °FPassing clouds.8 mph53%29.89 "HgN/A
6:00 AM68 °FClear.2 mph73%29.89 "Hg10 mi
5:30 AM68 °FClear.No wind73%29.89 "Hg10 mi
5:00 AM70 °FClear.3 mph69%29.89 "Hg10 mi
4:30 AM70 °FPassing clouds.5 mph69%29.89 "HgN/A
3:30 AM73 °FPassing clouds.5 mph65%29.92 "HgN/A
3:00 AM73 °FPassing clouds.6 mph61%29.92 "HgN/A
2:30 AM70 °FClear.No wind83%29.92 "Hg10 mi
1:30 AM72 °FClear.2 mph73%29.92 "Hg10 mi
1:00 AM73 °FClear.1 mph65%29.92 "Hg10 mi
12:30 AM72 °FClear.No wind73%29.92 "Hg10 mi
12:00 AM73 °FClear.No wind74%29.92 "Hg10 mi
11:30 PM
Fri, Jun 24
75 °FClear.2 mph69%29.92 "Hg10 mi
11:00 PM72 °FPassing clouds.3 mph83%29.95 "HgN/A
10:30 PM73 °FClear.1 mph78%29.95 "Hg10 mi
10:00 PM75 °FSunny.No wind74%29.95 "Hg10 mi
9:30 PM77 °FSunny.No wind69%29.92 "Hg10 mi
8:30 PM81 °FPassing clouds.3 mph62%29.92 "HgN/A
8:00 PM82 °FSunny.6 mph62%29.92 "Hg10 mi
7:30 PM86 °FPassing clouds.6 mph55%29.92 "HgN/A
7:00 PM88 °FSunny.6 mph52%29.92 "Hg10 mi
6:30 PM88 °FSunny.3 mph52%29.92 "Hg10 mi
6:00 PM88 °FPassing clouds.7 mph49%29.92 "HgN/A
5:30 PM91 °FSunny.6 mph44%29.92 "Hg10 mi
5:00 PM95 °FSunny.13 mph36%29.92 "Hg10 mi
4:30 PM95 °FPassing clouds.12 mph28%29.95 "HgN/A
4:00 PM91 °FSunny.14 mph41%29.95 "Hg10 mi
3:30 PM91 °FSunny.14 mph41%29.95 "Hg10 mi
3:00 PM90 °FSunny.12 mph43%29.98 "Hg10 mi
2:30 PM90 °FPassing clouds.10 mph41%29.98 "HgN/A
2:00 PM91 °FPassing clouds.12 mph36%29.98 "HgN/A
1:30 PM88 °FSunny.10 mph52%29.98 "Hg10 mi
1:00 PM90 °FSunny.12 mph43%30.01 "Hg10 mi
12:30 PM88 °FPassing clouds.7 mph49%30.01 "HgN/A
12:00 PM86 °FPassing clouds.6 mph49%30.01 "HgN/A
11:30 AM86 °FSunny.3 mph49%30.01 "Hg10 mi
11:00 AM86 °FPassing clouds.6 mph52%30.01 "HgN/A
10:30 AM88 °FPassing clouds.6 mph46%30.01 "HgN/A
10:00 AM88 °FPassing clouds.7 mph43%30.01 "HgN/A
9:30 AM86 °FSunny.1 mph46%30.04 "Hg10 mi
9:00 AM82 °FPassing clouds.5 mph48%30.04 "HgN/A
Weather by CustomWeather, © 2016

See weather overviewHow to use our weather pages